Terminal Aerodrome Forecast
Issued by NWS

Home | Current Version | Previous Version | Text Only | Print | Product List | Glossary On
Versions: 1 2 3 4 5 6 7 8 9 10 11 12 13 14 15 16 17 18 19 20 21 22 23 24 25 26 27 28 29 30 31 32 33 34 35 36 37 38
000
FTUS41 KRNK 231156 AAA
TAFLWB
TAF AMD
KLWB 231156Z 2312/2412 35005KT P6SM OVC022
      TEMPO 2312/2315 OVC018
     FM231500 32010G18KT P6SM BKN027
     FM232300 31008KT P6SM SCT030
     FM240900 00000KT 1/4SM FG FEW001 SCT250=

USA.gov is the U.S. government's official web portal to all federal, state and local government web resources and services.